Location: Cerda�ola
(41.4919°N, 2.1403°E)
Time: 01:35:29
(UTC+00:00)

Cosmos 2084 Rocket - Pass Details

Date: 29 March 2020
Orbit: 562 x 619 km, 62.8° (Epoch: 27 May)

Event Time Altitude Azimuth Distance (km) Brightness Sun altitude
Rises 20:29:24 0° 326° (NNW) 2,882 8.0 -24.8°
Reaches altitude 10° 20:31:42 10° 330° (NNW) 1,980 6.9 -25.2°
Enters shadow 20:35:23 52° 6° (N) 770 4.1 -25.8°
